FW7196 Weather Reports


Display with metric or nautical units.
time (UTC)temp
F
wind
direction
speed
MPH
gust
MPH
rain 1hr
in
rain 24hr
in
rain mn
in
humidity
%
barometer
mb
20260506140038 59 133 1.0 4.0 0.00 0.09 0.00 85 1007.3
20260506135533 59 90 1.0 4.0 0.00 0.09 0.00 85 1007.4
20260506135021 59 194 0.0 4.0 0.00 0.09 0.00 86 1007.3
20260506134535 58 99 0.0 5.0 0.00 0.10 0.00 86 1007.3
20260506134513 58 256 0.0 4.0 0.00 0.09 0.00 86 1007.3
20260506134017 58 256 0.0 1.0 0.00 0.09 0.00 86 1007.3
20260506133524 58 102 1.0 6.0 0.00 0.09 0.00 86 1007.2
20260506133036 58 65 1.0 7.0 0.00 0.10 0.00 86 1007.3
20260506133009 58 80 0.0 6.0 0.00 0.09 0.00 86 1007.3
20260506132507 58 53 0.0 6.0 0.00 0.09 0.00 86 1007.2
20260506131948 58 100 0.0 0.0 0.00 0.09 0.00 87 1007.5
20260506131543 57 0 0.0 6.0 0.00 0.10 0.00 86 1007.7
20260506131438 58 89 1.0 4.0 0.00 0.09 0.00 86 1007.7
20260506130938 58 126 1.0 7.0 0.00 0.09 0.00 86 1007.8
20260506130037 57 132 0.0 10.0 0.00 0.10 0.00 87 1008.0
20260506125752 58 106 1.0 7.0 0.00 0.09 0.00 86 1007.9
20260506125242 57 114 0.0 4.0 0.00 0.09 0.00 87 1008.0
20260506124537 57 249 1.0 5.0 0.00 0.10 0.00 87 1008.1
20260506124101 57 194 0.0 1.0 0.00 0.09 0.00 87 1007.8
20260506123543 57 68 0.0 2.0 0.00 0.09 0.00 87 1007.5
20260506123051 57 54 0.0 0.0 0.00 0.09 0.00 87 1007.4
20260506123036 56 0 1.0 6.0 0.00 0.10 0.00 87 1007.4
20260506122554 57 47 0.0 3.0 0.00 0.09 0.00 87 1007.9
20260506122036 57 51 0.0 0.0 0.00 0.09 0.00 87 1007.7
20260506121534 56 136 1.0 7.0 0.00 0.10 0.00 87 1007.6
20260506120912 57 113 1.0 3.0 0.00 0.09 0.00 87 1007.6
20260506120412 57 90 1.0 8.0 0.00 0.09 0.00 87 1007.7
20260506120035 56 0 1.0 7.0 0.00 0.10 0.00 88 1007.7
20260506114541 56 0 0.0 7.0 0.00 0.10 0.00 87 1007.9
20260506113035 55 50 1.0 6.0 0.00 0.10 0.00 90 1008.0
20260506111536 54 0 0.0 2.0 0.00 0.10 0.00 92 1007.9
20260506110039 53 0 0.0 0.0 0.00 0.10 0.00 92 1008.1
20260506104540 53 0 0.0 0.0 0.00 0.10 0.00 92 1008.0
20260506103039 52 0 0.0 0.0 0.00 0.10 0.00 92 1007.9
20260506101537 52 0 0.0 0.0 0.00 0.10 0.00 92 1008.0
20260506100039 52 0 0.0 0.0 0.00 0.10 0.00 91 1008.0
20260506094540 52 0 0.0 0.0 0.00 0.10 0.00 90 1007.9
20260506093035 53 0 0.0 0.0 0.00 0.10 0.00 89 1007.8
20260506091537 53 0 0.0 0.0 0.00 0.10 0.00 90 1007.8
20260506090036 53 0 0.0 0.0 0.00 0.10 0.00 90 1007.9
20260506084540 54 0 0.0 0.0 0.00 0.10 0.00 89 1007.9
20260506083034 54 0 0.0 0.0 0.00 0.10 0.00 89 1008.1
20260506081536 54 0 0.0 0.0 0.00 0.10 0.00 88 1008.4
20260506073037 56 34 0.0 2.0 0.00 0.10 0.00 87 1008.3
20260506071535 56 0 0.0 0.0 0.00 0.10 0.00 86 1008.4
20260506061535 58 0 0.0 2.0 0.00 0.10 0.00 85 1008.2
20260506044544 57 0 0.0 2.0 0.00 0.10 0.00 91 1008.2
20260506043035 57 0 0.0 2.0 0.00 0.10 0.00 91 1008.0
20260506041536 57 0 0.0 1.0 0.00 0.10 0.00 92 1008.1
20260506040036 57 0 0.0 0.0 0.00 0.10 0.00 93 1008.1
20260506034538 57 0 0.0 2.0 0.00 0.10 0.10 93 1008.0
20260506033036 57 66 0.0 2.0 0.00 0.10 0.10 93 1008.0
20260506031538 57 0 0.0 0.0 0.00 0.10 0.10 93 1008.0
20260506030055 57 0 0.0 0.0 0.00 0.10 0.10 93 1008.0
20260506024547 56 0 0.0 0.0 0.00 0.10 0.10 93 1008.0
20260506023039 56 0 0.0 0.0 0.00 0.10 0.10 93 1007.9
20260506021537 56 0 0.0 1.0 0.00 0.10 0.10 93 1007.9
20260506020035 56 0 0.0 0.0 0.00 0.10 0.10 93 1007.7
20260506014543 56 0 0.0 2.0 0.00 0.10 0.10 92 1007.5
20260506013036 57 0 0.0 0.0 0.00 0.10 0.10 92 1007.4
20260506011538 58 0 0.0 2.0 0.00 0.10 0.10 90 1007.5
20260506010045 59 0 0.0 2.0 0.00 0.10 0.10 90 1007.5
20260506004546 60 0 0.0 3.0 0.00 0.10 0.10 87 1007.2
20260506003040 60 0 1.0 6.0 0.00 0.10 0.10 84 1007.1
20260506001543 59 111 1.0 2.0 0.00 0.10 0.10 87 1007.3
20260506000038 59 0 0.0 0.0 0.00 0.10 0.10 90 1007.1
20260505234536 59 0 0.0 0.0 0.00 0.10 0.10 92 1007.1
20260505233035 59 0 0.0 0.0 0.00 0.10 0.10 92 1007.1
20260505231535 59 0 0.0 0.0 0.00 0.10 0.10 91 1006.7
20260505230046 60 0 0.0 0.0 0.00 0.10 0.10 89 1006.4
20260505224537 60 0 0.0 4.0 0.00 0.10 0.10 86 1006.0
20260505223036 60 126 2.0 5.0 0.00 0.10 0.10 85 1006.5
20260505221536 60 68 0.0 4.0 0.03 0.10 0.10 88 1006.0
20260505220041 60 0 0.0 4.0 0.05 0.10 0.10 90 1005.6
20260505214536 60 0 0.0 1.0 0.10 0.10 0.10 91 1005.1
20260505213043 60 0 0.0 9.0 0.10 0.10 0.10 86 1005.2
20260505211541 61 10 1.0 12.0 0.07 0.07 0.07 81 1006.3
20260505210036 66 109 2.0 14.0 0.04 0.04 0.04 73 1006.2
20260505204537 77 335 3.0 15.0 0.00 0.00 0.00 36 1004.2
20260505203041 78 141 2.0 8.0 0.00 0.00 0.00 35 1002.6
20260505201537 78 147 2.0 16.0 0.00 0.00 0.00 34 1002.7
20260505200038 79 215 3.0 18.0 0.00 0.00 0.00 32 1002.6
20260505194535 80 49 3.0 12.0 0.00 0.00 0.00 32 1002.6
20260505193052 79 189 4.0 16.0 0.00 0.00 0.00 32 1002.7
20260505191540 80 107 3.0 13.0 0.00 0.00 0.00 31 1002.9
20260505190042 80 162 2.0 12.0 0.00 0.00 0.00 32 1003.2
20260505184535 78 198 3.0 12.0 0.00 0.00 0.00 33 1003.2
20260505183036 78 46 2.0 11.0 0.00 0.00 0.00 33 1003.4
20260505181536 79 101 1.0 15.0 0.00 0.00 0.00 33 1003.7
20260505180040 78 164 4.0 10.0 0.00 0.00 0.00 34 1003.9
20260505174538 78 94 3.0 15.0 0.00 0.00 0.00 36 1004.4
20260505173035 77 159 3.0 13.0 0.00 0.00 0.00 34 1004.4
20260505171540 79 60 2.0 9.0 0.00 0.00 0.00 38 1004.5
20260505170038 77 72 3.0 11.0 0.00 0.00 0.00 40 1004.7
20260505164540 77 140 3.0 10.0 0.00 0.00 0.00 41 1004.9
20260505163041 76 99 4.0 13.0 0.00 0.00 0.00 42 1005.3
20260505161536 75 159 2.0 10.0 0.00 0.00 0.00 44 1005.6
20260505153043 72 171 2.0 9.0 0.00 0.00 0.00 49 1006.7
20260505151538 70 37 2.0 10.0 0.00 0.00 0.00 52 1007.1